Location: Mentone
(34.5413°N, 85.5351°W)
Time: 23:19:23
(UTC-05:00)

A-11 Canister half - Visible Passes

Search period start: 22 September 2014 00:00
Search period end: 02 October 2014 00:00
Orbit: 1525 x 1684 km, 47.3° (Epoch: 21 September)

Date Brightness Start Highest point End Pass type
(mag) Time Alt. Az. Time Alt. Az. Time Alt. Az.
22 Sep 11.1 00:50:55 10° NW 00:51:22 12° NW 00:51:22 12° NW visible
22 Sep 10.9 03:14:50 12° SSE 03:14:50 12° SSE 03:15:15 10° SSE visible
22 Sep 9.6 20:16:08 10° W 20:25:12 52° NNW 20:34:11 11° NE visible
22 Sep 9.9 22:23:26 10° WNW 22:32:08 38° N 22:32:28 38° N visible
23 Sep 11.0 00:29:23 10° NW 00:30:45 15° NW 00:30:45 15° NW visible
23 Sep 9.6 19:54:32 10° W 20:03:37 54° NNW 20:12:59 10° NE visible
23 Sep 9.9 22:01:50 10° WNW 22:10:30 38° N 22:11:51 37° NNE visible
24 Sep 10.8 00:07:51 10° NW 00:10:07 19° NW 00:10:07 19° NW visible
24 Sep 9.5 19:32:56 10° WSW 19:42:03 56° NNW 19:51:25 10° NE visible
24 Sep 9.9 21:40:14 10° WNW 21:48:52 38° N 21:51:12 34° NNE visible
24 Sep 10.6 23:46:19 10° NW 23:49:29 23° NW 23:49:29 23° NW visible
25 Sep 9.5 19:11:21 10° WSW 19:20:28 57° NNW 19:29:51 10° NE visible
25 Sep 9.9 21:18:37 10° WNW 21:27:14 38° N 21:30:34 30° NE visible
25 Sep 10.4 23:24:47 10° NW 23:28:51 28° NW 23:28:51 28° NW visible
26 Sep 9.5 18:49:46 10° WSW 18:58:55 59° NNW 19:08:17 10° NE visible
26 Sep 9.9 20:57:01 10° WNW 21:05:37 38° N 21:09:56 26° NE visible
26 Sep 10.2 23:03:16 10° NW 23:08:13 33° NW 23:08:13 33° NW visible
27 Sep 9.9 20:35:24 10° WNW 20:43:59 38° N 20:49:18 23° NE visible
27 Sep 10.0 22:41:44 10° NW 22:47:35 38° NNW 22:47:35 38° NNW visible
28 Sep 9.9 20:13:47 10° WNW 20:22:22 38° N 20:28:41 19° NE visible
28 Sep 9.8 22:20:11 10° NW 22:26:58 42° NNW 22:26:58 42° NNW visible
29 Sep 9.9 19:52:10 10° WNW 20:00:44 38° N 20:08:04 15° NE visible
29 Sep 9.6 21:58:39 10° NW 22:06:21 45° N 22:06:21 45° N visible
30 Sep 11.1 00:03:48 10° WNW 00:04:38 13° WNW 00:04:38 13° WNW visible
30 Sep 9.9 19:30:33 10° WNW 19:39:07 39° N 19:47:28 11° ENE visible
30 Sep 9.5 21:37:07 10° NW 21:45:45 47° NNE 21:45:45 47° NNE visible
30 Sep 10.9 23:42:16 10° NW 23:44:02 17° WNW 23:44:02 17° WNW visible
01 Oct 9.9 19:08:56 10° WNW 19:17:30 39° N 19:26:17 10° ENE visible
01 Oct 9.5 21:15:34 10° NW 21:24:33 46° NNE 21:25:10 45° NNE visible
01 Oct 10.7 23:20:45 10° NW 23:23:27 22° NW 23:23:27 22° NW visible
